User: anonymous   Login
Location: Barnston
(51.8500°N, 0.4000°E)
Time: 23:36:03
(UTC+00:00)
Language:

Cosmos 489 Rocket - Orbit

View from above orbital plane
View from above orbital plane
View from above satellite
View from above satellite

Ground track
Ground track

The orbit data is extracted from the following two-line orbital elements,

1 06020U 72035B   24055.58294961  .00000087  00000-0  10758-3 0  9994
2 06020  74.0226 151.0508 0021804 299.4921 159.2143 13.78980914605693
Epoch (UTC): 24 February 2024 13:59:26
Eccentricity: 0.0021804
inclination: 74.0226°
perigee height: 951 km
apogee height: 983 km
right ascension of ascending node: 151.0508°
argument of perigee: 299.4921°
revolutions per day: 13.78980914
mean anomaly at epoch: 159.2143°
orbit number at epoch: 60569

The dashed part of the orbit path shows where the satellite is in the earth's shadow,  

DLR